Tracking 19149 objects as of 21-Apr-2018
HD Live streaming from Space Station
objects crossing your sky now

FENGYUN 1C DEB

Track FENGYUN 1C DEB now!
10-day predictions


NORAD ID: 31066
Int'l Code: 1999-025BFL
Perigee: 473.4 km
Apogee: 737.6 km
Inclination: 99.0 °
Period: 96.7 minutes
Semi major axis: 6976 km
RCS: 0.002 m2 (small)
Launch date: May 10, 1999
Source: People's Republic of China (PRC)
Launch site: Taiyaun Space Center, China (TSC)

Note: This is SATELLITE DEBRIS
aabbcc
Your satellite tracking list
Your tracking list is empty




NASA's NSSDC Master Catalog

Two Line Element Set (TLE):
1 31066U 99025BFL 18110.82012768  .00001939  00000-0  15020-3 0  9999
2 31066  99.0153 248.9409 0189373 109.3931 252.7859 14.89871405598791
Source of the keplerian elements: AFSPC